Weather History for KAVL - February, 2014

Change the Weather History Date:

Wednesday, February 12, 2014

  Actual Average Record
Temperature  
Mean Temperature 26 °F 40 °F  
Max Temperature 29 °F 50 °F 73 °F (1922)
Min Temperature 22 °F 29 °F 6 °F (1981)
Degree Days  
Heating Degree Days 39 25  
Month to date heating degree days 320 314  
Since 1 July heating degree days 2959 2841  
Cooling Degree Days 0 0  
Month to date cooling degree days 0 0  
Year to date cooling degree days 0 0  
Moisture  
Dew Point 21 °F    
Average Humidity 76    
Maximum Humidity 92    
Minimum Humidity 60    
Precipitation  
Precipitation 0.78 in 0.14 in 2.70 in (1873)
Month to date precipitation 2.13 1.59  
Year to date precipitation 4.46 5.26  
Snow  
Snow 7.10 in 0.00 in 7.10 in (2014)
Month to date snowfall 7.7 1.0  
Since 1 July snowfall 9.2 6.1  
Snow Depth T in    
Sea Level Pressure  
Sea Level Pressure 30.08 in    
Wind  
Wind Speed 3 mph (ENE)    
Max Wind Speed 9 mph    
Max Gust Speed 15 mph    
Visibility 3 miles    
Events Fog , Snow    
T = Trace of Precipitation, MM = Missing Value Source: NWS Daily Summary

Daily Weather History Graph

Daily Weather History Graph

Search for Another Location

Airport or City:

Trip Planner

Search our weather history database for the weather conditions in past years. The results will help you decide how hot, cold, wet, or windy it might be!

Date:

Astronomy

Feb. 12, 2014 Rise Set
Actual Time 7:19 AM EST 6:09 PM EST
Civil Twilight 6:53 AM EST 6:35 PM EST
Nautical Twilight 6:23 AM EST 7:05 PM EST
Astronomical Twilight 5:54 AM EST 7:35 PM EST
Moon 4:23 PM EST (2/12) 5:33 AM EST (2/12)
Length of Visible Light 11h 41m
Length of Day
10h 49m
Waxing Gibbous, 95% of the Moon is Illuminated
Feb 12
Waxing Gibbous
Feb 14
Full
Feb 22
Last Quarter
Mar 1
New
Mar 8
First Quarter

Hourly Weather History & Observations

Time (EST) Temp. Windchill Dew Point Humidity Pressure Visibility Wind Dir Wind Speed Gust Speed Precip Events Conditions
12:04 AM 28.4 °F 21.2 °F 24.8 °F 86% 30.26 in 10.0 mi South 6.9 mph - N/A   Overcast
12:54 AM 28.0 °F 21.7 °F 24.1 °F 85% 30.30 in 10.0 mi South 5.8 mph - N/A   Mostly Cloudy
1:08 AM 28.4 °F 23.3 °F 24.8 °F 86% 30.25 in 10.0 mi South 4.6 mph - N/A   Scattered Clouds
1:54 AM 28.0 °F 20.8 °F 24.1 °F 85% 30.31 in 9.0 mi South 6.9 mph - N/A   Clear
2:28 AM 28.4 °F 22.2 °F 23.0 °F 80% 30.25 in 9.0 mi South 5.8 mph - N/A   Mostly Cloudy
2:54 AM 28.0 °F 24.2 °F 23.0 °F 81% 30.30 in 9.0 mi SSE 3.5 mph - N/A   Overcast
3:54 AM 28.0 °F 22.8 °F 21.0 °F 75% 30.29 in 10.0 mi ESE 4.6 mph - N/A   Overcast
4:16 AM 28.4 °F 22.2 °F 21.2 °F 74% 30.23 in 10.0 mi SE 5.8 mph - N/A   Overcast
4:41 AM 28.4 °F 23.3 °F 21.2 °F 74% 30.23 in 10.0 mi SE 4.6 mph - N/A   Overcast
4:54 AM 27.0 °F 18.7 °F 19.9 °F 75% 30.27 in 10.0 mi SE 8.1 mph - N/A   Overcast
5:54 AM 26.1 °F 19.4 °F 15.1 °F 63% 30.28 in 10.0 mi SE 5.8 mph - N/A   Overcast
6:54 AM 25.0 °F 16.3 °F 12.9 °F 60% - 10.0 mi ESE 8.1 mph - N/A   Overcast
7:54 AM 25.0 °F 20.7 °F 12.0 °F 58% 30.32 in 10.0 mi ESE 3.5 mph - N/A   Overcast
8:54 AM 24.1 °F 18.2 °F 14.0 °F 65% 30.33 in 2.5 mi ESE 4.6 mph - 0.00 in Snow Light Snow
9:01 AM 24.8 °F 20.5 °F 15.8 °F 69% 30.27 in 1.8 mi ESE 3.5 mph - 0.00 in Snow Light Snow
9:17 AM 23.0 °F - 17.6 °F 80% 30.27 in 1.2 mi Calm Calm - 0.01 in Snow Light Snow
9:54 AM 23.0 °F 17.0 °F 19.0 °F 85% 30.30 in 1.0 mi South 4.6 mph - 0.03 in Snow Light Snow
10:30 AM 23.0 °F 18.4 °F 19.4 °F 86% 30.22 in 1.5 mi SSE 3.5 mph - 0.01 in Snow Light Snow
10:38 AM 23.0 °F - 19.4 °F 86% 30.21 in 2.0 mi Calm Calm - 0.01 in Snow Light Snow
10:54 AM 23.0 °F 18.4 °F 19.0 °F 85% 30.26 in 2.0 mi SW 3.5 mph - 0.01 in Snow Light Snow
11:04 AM 23.0 °F - 19.4 °F 86% 30.21 in 1.5 mi Calm Calm - 0.00 in Snow Light Snow
11:23 AM 24.8 °F - 19.4 °F 80% 30.19 in 2.0 mi Calm Calm - 0.01 in Snow Light Snow
11:36 AM 24.8 °F 20.5 °F 19.4 °F 80% 30.18 in 1.8 mi NNW 3.5 mph - 0.01 in Snow Light Snow
11:54 AM 24.1 °F - 19.9 °F 84% 30.22 in 1.5 mi Calm Calm - 0.01 in Snow Light Snow
12:13 PM 24.8 °F - 19.4 °F 80% 30.16 in 1.8 mi Calm Calm - 0.01 in Snow Light Snow
12:24 PM 24.8 °F - 21.2 °F 86% 30.16 in 1.0 mi Calm Calm - 0.01 in Snow Light Snow
12:31 PM 24.8 °F - 21.2 °F 86% 30.15 in 0.5 mi Calm Calm - 0.02 in Fog , Snow Snow
12:38 PM 24.8 °F - 21.2 °F 86% 30.14 in 0.8 mi Calm Calm - 0.02 in Snow Light Snow
12:45 PM 24.8 °F - 21.2 °F 86% 30.14 in 0.8 mi Calm Calm - 0.03 in Snow Light Snow
12:49 PM 24.8 °F - 21.2 °F 86% 30.14 in 1.0 mi Calm Calm - 0.03 in Snow Light Snow
12:54 PM 24.1 °F - 21.0 °F 88% 30.19 in 1.0 mi Calm Calm - 0.03 in Snow Light Snow
1:14 PM 24.8 °F - 21.2 °F 86% 30.12 in 2.0 mi Calm Calm - 0.01 in Snow Light Snow
1:28 PM 24.8 °F - 21.2 °F 86% 30.11 in 1.8 mi Calm Calm - 0.01 in Snow Light Snow
1:54 PM 25.0 °F 20.7 °F 19.9 °F 81% 30.14 in 1.5 mi SSE 3.5 mph - 0.02 in Snow Light Snow
1:58 PM 24.8 °F 20.5 °F 19.4 °F 80% 30.08 in 1.2 mi SSE 3.5 mph - 0.00 in Snow Light Snow
2:21 PM 24.8 °F 19.1 °F 21.2 °F 86% 30.08 in 0.8 mi South 4.6 mph - 0.02 in Snow Light Snow
2:28 PM 24.8 °F 20.5 °F 21.2 °F 86% 30.07 in 1.0 mi South 3.5 mph - 0.03 in Snow Light Snow
2:45 PM 24.8 °F - 21.2 °F 86% 30.05 in 1.0 mi Calm Calm - 0.04 in Snow Light Snow
2:52 PM 24.8 °F - 21.2 °F 86% 30.05 in 0.8 mi Calm Calm - 0.04 in Snow Light Snow
2:54 PM 24.1 °F - 21.0 °F 88% 30.09 in 0.8 mi Calm Calm - 0.04 in Snow Light Snow
3:13 PM 24.8 °F 20.5 °F 21.2 °F 86% 30.03 in 1.2 mi Variable 3.5 mph - 0.01 in Snow Light Snow
3:17 PM 24.8 °F 20.5 °F 19.4 °F 80% 30.02 in 1.5 mi North 3.5 mph - 0.01 in Snow Light Snow
3:29 PM 24.8 °F - 19.4 °F 80% 30.02 in 2.0 mi Calm Calm - 0.01 in   Overcast
3:37 PM 24.8 °F - 21.2 °F 86% 30.01 in 3.0 mi Calm Calm - 0.01 in   Overcast
3:50 PM 24.8 °F - 21.2 °F 86% 30.00 in 2.5 mi Calm Calm - 0.02 in Snow Light Snow
3:54 PM 25.0 °F - 19.9 °F 81% 30.04 in 2.0 mi Calm Calm - 0.02 in Snow Light Snow
4:00 PM 24.8 °F - 21.2 °F 86% 29.99 in 1.2 mi Calm Calm - 0.00 in Snow Light Snow
4:15 PM 24.8 °F - 21.2 °F 86% 29.99 in 0.5 mi Calm Calm - 0.01 in Fog , Snow Snow
4:27 PM 24.8 °F - 21.2 °F 86% 29.98 in 0.5 mi Calm Calm - 0.03 in Fog , Snow Snow
4:40 PM 24.8 °F - 21.2 °F 86% 29.97 in 0.8 mi Calm Calm - 0.03 in Snow Light Snow
4:54 PM 24.1 °F - 21.0 °F 88% 30.02 in 0.8 mi Calm Calm - 0.04 in Snow Light Snow
5:26 PM 24.8 °F - 21.2 °F 86% 29.96 in 0.2 mi Calm Calm - 0.03 in Fog , Snow Heavy Snow
5:43 PM 24.8 °F - 21.2 °F 86% 29.95 in 0.2 mi Calm Calm - 0.06 in Fog , Snow Heavy Snow
5:54 PM 24.1 °F - 21.9 °F 91% 29.99 in 0.2 mi Calm Calm - 0.09 in Fog , Snow Heavy Snow
6:14 PM 24.8 °F 20.5 °F 21.2 °F 86% 29.93 in 0.8 mi Variable 3.5 mph - 0.04 in Snow Light Snow
6:54 PM 24.1 °F 17.0 °F 21.9 °F 91% 29.95 in 0.5 mi North 5.8 mph - 0.13 in Fog , Snow Snow
7:07 PM 24.8 °F 17.9 °F 21.2 °F 86% 29.90 in 1.0 mi North 5.8 mph - 0.02 in Snow Light Snow
7:14 PM 24.8 °F 19.1 °F 23.0 °F 93% 29.90 in 0.8 mi NNW 4.6 mph - 0.03 in Snow Light Snow
7:29 PM 24.8 °F 19.1 °F 23.0 °F 93% 29.90 in 1.0 mi NNW 4.6 mph - 0.06 in Snow Light Snow
7:54 PM 26.1 °F 19.4 °F 24.1 °F 92% 29.94 in 1.0 mi North 5.8 mph - 0.11 in Snow Light Snow
8:17 PM 26.6 °F 18.2 °F 23.0 °F 86% 29.89 in 1.5 mi NNW 8.1 mph - 0.04 in Snow Light Snow
8:38 PM 26.6 °F 20.0 °F 24.8 °F 93% 29.88 in 1.0 mi NNW 5.8 mph - 0.07 in Snow Light Snow
8:54 PM 26.1 °F 20.5 °F 24.1 °F 92% 29.93 in 1.0 mi North 4.6 mph - 0.10 in Snow Light Snow
8:57 PM 26.6 °F 21.2 °F 24.8 °F 93% 29.87 in 0.8 mi North 4.6 mph - 0.00 in Snow Light Snow
9:25 PM 26.6 °F 20.0 °F 24.8 °F 93% 29.86 in 0.5 mi North 5.8 mph - 0.08 in Fog , Snow Snow
9:34 PM 26.6 °F 19.1 °F 24.8 °F 93% 29.86 in 0.8 mi North 6.9 mph - 0.10 in Snow Light Snow
9:42 PM 26.6 °F 19.1 °F 24.8 °F 93% 29.86 in 1.5 mi NNW 6.9 mph - 0.11 in Snow Light Snow
9:48 PM 26.6 °F 20.0 °F 24.8 °F 93% 29.86 in 2.0 mi NNW 5.8 mph - 0.11 in Snow Light Snow
9:54 PM 27.0 °F 20.5 °F 25.0 °F 92% 29.91 in 2.5 mi North 5.8 mph - 0.12 in Snow Light Snow
10:35 PM 26.6 °F 20.0 °F 24.8 °F 93% 29.83 in 1.5 mi NW 5.8 mph - 0.01 in Snow Light Snow
10:54 PM 26.1 °F 20.5 °F 25.0 °F 96% 29.87 in 1.5 mi NW 4.6 mph - 0.02 in Snow Light Snow
11:09 PM 26.6 °F 20.0 °F 24.8 °F 93% 29.80 in 2.5 mi NNW 5.8 mph - 0.00 in Snow Light Snow
11:22 PM 26.6 °F 22.6 °F 24.8 °F 93% 29.80 in 3.0 mi NW 3.5 mph - 0.01 in Snow Light Snow
11:54 PM 27.0 °F - 25.0 °F 92% 29.83 in 3.0 mi Calm Calm - 0.01 in Snow Light Snow